EHI
0 0 0 0 0 0 0 0 0 0 0 0 0 0 0 0 0 0 0 0 0 0 0 0 0 0 0 0 0 0 0 0 0 0 0 0 0 0
0 0 0 0 0 0 0 0 0 0 0 0 0 0 0 0 0 0 0 0 0 0 0 0 0 0 0 0 0 0 0 0 0 0 0 0 0 0
0 0 0 0 0 0 0 0 0 0 0 0 1 1 1 0 0 0 0 0 0 0 0 0 0 0 0 0 0 0 0 0 0 0 0 0 0 0
0 0 0 0 0 0 0 0 0 0 0 0 1 2 2 1 0 0 0 0 0 0 0 0 0 0 0 0 0 0 0 0 0 0 0 0 0 0
0 0 0 0 0 0 0 0 0 0 0 0 0 1 2 1 0 0 0 0 0 0 0 0 0 0 0 0 0 0 0 0 0 0 0 0 0 0
0 0 0 0 0 0 0 0 0 0 0 0 0 1 1 1 0 0 0 0 0 0 0 0 0 0 0 0 0 0 0 0 0 0 0 0 0 0
0 0 0 0 0 0 0 0 0 0 0 0 0 0 0 0 0 0 0 0 0 0 0 0 0 0 0 0 0 0 0 0 0 0 0 0 0 0
0 0 0 0 0 0 0 0 0 0 0 0 0 0 0 0 0 0 0 0 0 0 0 0 0 0 0 0 0 0 0 0 0 0 0 0 0 0
0 0 0 0 0 0 0 0 0 0 0 0 0 0 0 0 0 0 0 0 0 0 0 0 0 0 0 0 0 0 0 0 0 0 0 0 0 0
0 0 0 0 0 0 0 0 0 0 0 0 0 0 0 0 0 0 0 0 0 0 0 0 0 0 0 0 0 0 0 0 0 0 0 0 0 0
0 0 0 0 0 0 0 0 0 0 0 0 0 0 0 0 0 0 0 0 0 0 0 0 0 0 0 0 0 0 0 0 0 0 0 0 0 0
0 0 0 0 0 0 0 0 0 0 0 0 0 0 0 0 0 0 0 0 0 0 0 0 0 0 0 0 0 0 0 0 0 0 0 0 0 0
0 0 0 0 0 0 0 0 0 0 0 0 0 0 0 0 0 0 0 0 0 0 0 0 0 0 0 0 0 0 0 0 0 0 0 0 0 0
0 0 0 0 0 0 0 0 0 0 0 0 0 0 0 0 0 0 0 0 0 0 0 0 0 0 0 0 0 0 0 0 0 0 0 0 0 0
0 0 0 0 0 0 0 0 0 0 0 0 0 0 0 0 0 0 0 0 0 0 0 0 0 0 0 0 0 0 0 0 0 0 0 0 0 0
0 0 0 0 0 0 0 0 0 0 0 0 0 0 0 0 0 0 0 0 0 0 0 0 0 0 0 0 0 0 0 0 0 0 0 0 0 0
0 0 0 0 0 0 0 0 0 0 0 0 0 0 0 0 0 0 0 0 0 0 0 0 0 0 0 0 0 0 0 0 0 0 0 0 0 0
0 0 0 0 0 0 0 0 0 0 0 0 0 0 0 0 0 0 0 0 0 0 0 0 0 0 0 0 0 0 0 0 0 0 0 0 0 0
0 0 0 0 0 0 0 0 0 0 0 0 0 0 0 0 0 0 0 0 0 0 0 0 0 0 0 0 0 0 0 0 0 0 0 0 0 0
0 0 0 0 0 0 0 0 0 0 0 0 0 0 0 0 0 0 0 0 0 0 0 0 0 0 0 0 0 0 0 0 0 0 0 0 0 0
0 0 0 0 0 0 0 0 0 0 0 0 0 0 0 0 0 0 0 0 0 0 0 0 0 0 0 0 0 0 0 0 0 0 0 0 0 0
0 0 0 0 0 0 0 0 0 0 0 0 0 0 0 0 0 0 0 0 0 0 0 0 0 0 0 0 0 0 0 0 0 0 0 0 0 0
0 0 0 0 0 0 0 0 0 0 0 0 0 0 0 0 0 0 0 0 0 0 0 0 0 0 0 0 0 0 0 0 0 0 0 0 0 0
Wind_Speed
4 4 3 2 2 2 2 2 2 2 2 2 1 2 3 4 7 6 6 10 11 11 10 10 9 9 8 8 9 9 9 9 9 9 10 11 12 13
4 4 4 3 2 2 2 2 2 3 2 2 1 1 3 5 6 6 6 11 11 11 10 9 8 8 7 7 7 7 7 7 7 7 7 8 9 10
5 5 5 4 3 2 2 2 2 2 3 2 1 1 2 5 6 5 5 5 5 10 10 9 8 8 7 6 6 5 5 5 5 6 6 7 8 9
7 6 6 5 4 3 3 3 2 2 3 3 1 1 2 5 6 7 5 5 5 8 10 9 9 8 7 6 5 5 4 4 4 4 5 5 6 8
8 8 7 6 5 4 4 3 3 3 2 3 2 2 2 4 5 5 6 5 5 7 9 8 8 7 6 6 5 4 4 3 3 4 4 5 5 6
8 8 8 7 7 6 5 5 4 3 3 2 3 2 2 4 5 6 5 3 4 5 5 6 7 7 6 5 4 4 4 3 3 3 3 3 4 4
7 7 7 9 11 9 6 5 5 4 3 3 3 3 3 5 5 5 6 5 3 3 4 3 4 3 2 3 3 3 3 3 3 3 3 3 3 2
7 7 7 9 10 12 12 11 9 7 5 4 3 4 4 4 4 6 6 6 4 4 4 4 3 3 1 1 2 3 4 4 4 4 4 4 4 4
7 6 7 8 8 7 9 12 11 12 11 7 5 5 5 6 7 7 7 7 5 7 5 4 3 3 2 2 3 4 4 5 5 6 6 6 6 6
8 8 7 6 7 7 6 6 6 7 9 7 6 6 5 5 6 7 7 5 4 5 5 4 4 3 2 2 3 4 5 6 7 7 8 8 9 9
8 8 8 7 10 11 7 7 6 5 8 10 9 8 8 8 6 5 6 7 5 5 3 4 4 4 2 1 2 4 5 6 7 8 9 9 10 9
5 6 10 10 10 12 9 8 8 6 5 6 5 6 6 7 10 7 7 7 5 5 4 5 5 5 4 2 1 2 3 4 6 7 7 8 8 6
5 4 5 10 12 12 10 8 10 8 6 6 5 4 3 4 5 6 6 6 6 4 7 6 5 4 5 4 2 2 2 2 2 3 5 6 6 6
5 4 5 8 10 11 9 9 11 9 5 4 4 4 4 4 5 6 6 6 5 5 9 8 6 7 6 5 4 4 3 2 2 2 2 4 5 6
4 6 6 7 7 6 10 11 9 6 5 4 5 5 4 5 4 4 4 4 3 4 8 6 6 7 6 6 6 5 4 3 3 3 3 3 3 3
3 4 5 5 4 4 5 6 5 6 6 5 5 4 3 3 4 4 4 5 4 3 5 6 7 10 5 5 7 7 5 6 6 4 3 2 2 3
2 2 2 2 2 2 2 3 4 5 5 4 4 4 3 3 3 3 4 4 5 5 5 4 4 4 5 7 7 6 6 5 6 6 4 3 2 3
3 2 3 4 4 4 4 4 4 5 5 5 5 5 4 4 4 3 4 4 5 6 6 6 6 5 3 1 4 8 7 6 6 6 4 4 3 3
3 3 3 4 4 5 5 5 5 5 5 5 5 5 5 4 4 4 4 4 5 5 6 7 8 7 7 6 4 6 8 7 7 6 5 4 4 4
3 4 4 4 4 4 5 5 5 5 5 5 5 5 5 5 4 5 5 5 5 5 6 6 8 8 8 7 6 5 9 9 8 8 5 3 2 3
3 4 4 4 4 4 5 5 5 5 6 6 6 6 6 5 5 5 5 8 6 6 8 8 7 9 5 6 5 4 5 9 10 8 8 5 3 3
3 4 4 4 4 5 5 5 5 5 6 6 7 7 6 6 7 7 6 6 6 6 7 6 7 7 5 7 7 7 6 5 5 8 9 8 7 8
4 4 4 4 4 4 4 5 6 5 6 6 6 7 7 6 6 6 6 7 6 7 7 7 7 5 5 6 7 6 8 7 5 4 2 1 6 7
Wind_Direction
246 253 249 248 249 236 207 180 174 206 243 244 227 200 176 161 170 165 162 174 174 175 178 181 182 185 190 196 201 205 211 215 217 218 220 222 223 224
231 237 246 239 230 227 223 209 191 187 217 241 234 193 171 166 155 149 155 161 164 165 165 167 166 170 176 182 186 193 199 205 209 213 218 221 222 224
235 227 233 228 225 221 212 208 206 188 214 245 249 139 144 149 138 132 136 142 151 153 153 154 154 157 157 162 166 173 180 188 199 209 217 223 226 228
235 229 232 227 218 215 207 205 202 200 204 222 220 189 159 156 148 144 143 140 133 143 142 142 142 144 147 152 159 165 171 182 198 211 221 228 232 235
230 225 227 221 222 212 203 205 205 207 193 195 197 188 162 153 145 138 134 123 130 136 132 131 134 135 138 146 154 163 172 183 200 216 224 231 237 239
231 225 221 214 219 214 207 203 197 192 184 183 182 182 172 159 153 147 142 135 138 138 126 122 124 121 123 130 141 152 162 174 190 203 211 218 224 229
235 227 224 222 219 214 207 193 186 181 175 181 189 178 177 167 170 161 152 140 127 136 129 128 122 114 113 121 123 134 146 156 163 168 170 171 169 162
232 229 233 236 229 222 216 200 186 180 182 182 195 192 191 183 162 160 153 153 164 160 141 138 133 127 110 96 114 127 135 139 140 138 135 133 133 128
226 224 235 232 223 217 218 214 206 198 186 179 187 197 192 193 172 172 177 170 165 162 140 139 137 126 107 97 118 126 129 128 128 129 125 119 116 112
224 220 220 225 225 208 205 207 207 206 198 190 190 196 194 186 181 180 178 153 110 146 144 136 141 124 107 79 107 125 128 124 122 122 120 113 105 97
229 223 218 218 220 207 194 200 208 217 210 200 196 197 196 189 174 160 165 167 158 165 160 130 135 120 109 95 94 115 122 123 123 122 121 116 110 99
233 227 224 222 219 206 195 191 203 209 196 194 196 202 199 196 188 183 176 176 161 160 164 133 137 133 133 125 117 116 109 113 121 124 126 123 119 107
227 223 226 226 222 211 200 194 204 193 184 180 181 186 186 192 195 192 187 179 171 162 161 142 142 138 135 139 145 149 138 132 127 126 128 125 124 123
222 216 217 218 219 214 206 206 201 187 170 167 170 183 191 197 199 196 195 194 183 168 163 151 146 155 142 142 156 156 156 158 151 149 143 131 114 104
222 213 210 211 211 213 212 203 189 177 165 168 182 193 197 195 182 182 187 185 174 165 163 161 149 150 146 148 152 153 156 175 174 160 160 160 154 140
226 220 213 211 202 194 194 194 182 179 173 177 184 188 181 174 175 172 172 170 166 167 172 167 160 155 147 143 150 157 161 167 172 172 159 160 157 156
185 174 174 174 185 180 177 179 177 174 179 176 174 176 177 176 182 173 164 163 170 171 165 157 153 147 146 147 152 161 159 158 162 160 155 162 185 181
176 184 192 193 193 192 191 188 188 189 186 180 177 178 181 184 185 176 168 171 174 173 169 158 146 131 110 82 159 161 166 162 155 157 150 155 184 196
195 206 205 203 201 194 192 190 192 194 185 180 181 181 178 180 180 182 178 176 176 174 171 164 163 161 165 171 187 177 167 161 156 162 169 161 178 191
210 214 214 211 206 200 198 196 193 185 183 186 185 184 181 178 183 186 183 182 176 170 171 172 176 178 179 168 161 175 176 164 163 168 166 141 115 120
225 226 220 213 209 206 202 197 192 189 188 188 190 187 184 181 187 188 185 184 176 172 180 187 184 164 130 122 128 140 166 177 167 163 157 144 135 138
237 234 229 220 212 209 203 197 195 194 192 192 191 189 187 184 186 187 183 180 181 177 178 169 152 152 153 163 161 154 151 152 154 150 154 161 162 176
242 239 234 226 217 208 201 199 198 199 194 191 188 185 183 184 184 181 183 182 176 173 163 159 160 164 165 162 154 149 149 149 144 139 144 179 182 183